Temperature
12 12 12 12 12 12 12 12 12 11 12 12 12 12 12 12 12 12 12 11 12 12 12 11 11 11 11 11 11 11 12 11 11 11 11 11 11 11
12 12 12 12 12 12 12 12 12 11 11 12 12 12 12 12 11 11 11 11 11 11 11 11 11 11 11 11 11 11 11 11 11 11 11 11 11 11
12 12 12 12 12 12 12 12 12 11 11 12 12 12 12 12 11 11 11 11 11 11 11 11 11 11 11 11 11 11 11 11 11 11 11 11 11 11
12 12 12 11 11 11 11 11 11 11 11 11 11 12 11 11 11 11 11 11 11 11 11 11 11 11 11 11 11 11 11 11 11 11 11 11 11 11
11 11 11 11 11 11 11 11 11 11 11 11 11 11 11 11 11 11 11 11 11 10 10 10 11 10 10 10 10 10 10 10 10 10 10 11 11 11
11 11 11 11 11 11 11 11 11 11 11 11 11 11 11 11 11 11 11 11 11 10 10 10 10 10 10 10 10 10 10 10 10 10 10 10 10 10
10 10 10 10 10 10 10 10 10 10 10 10 10 11 11 10 10 10 10 10 10 10 10 10 10 10 10 10 10 10 10 10 10 10 10 10 10 10
10 10 10 10 10 10 10 10 10 10 10 10 10 10 10 10 10 10 10 10 10 10 10 10 10 10 10 10 10 10 10 10 10 10 10 10 10 10
10 10 10 9 9 9 9 10 10 10 10 10 10 10 10 10 10 10 10 10 10 10 9 10 10 10 10 10 9 9 9 9 10 10 9 9 10 10
9 9 9 9 9 9 9 9 9 9 9 9 9 9 10 9 9 9 9 9 9 9 9 9 9 10 10 10 9 9 9 9 9 9 9 9 9 9
9 9 9 9 9 9 9 9 9 9 9 9 9 9 9 9 9 9 9 9 9 9 9 9 9 9 9 9 9 9 9 9 9 9 9 9 9 9
9 9 9 8 8 8 8 8 8 9 9 9 9 9 9 9 9 9 9 8 8 9 9 8 8 8 8 9 9 9 9 9 9 9 9 9 9 9
8 8 8 8 8 8 8 8 8 8 8 8 9 9 9 9 9 8 8 8 8 8 8 8 8 8 8 8 8 9 8 8 8 8 8 8 8 8
8 8 8 8 7 7 7 8 8 8 8 8 8 8 8 8 8 8 8 8 8 8 8 8 8 8 7 7 8 8 8 8 8 8 8 8 8 8
7 7 7 7 7 7 7 7 7 7 7 7 7 8 7 7 7 7 8 8 8 8 7 7 7 7 7 7 7 8 8 8 8 8 8 8 8 8
7 7 7 7 7 7 7 7 7 7 7 7 7 7 7 7 7 7 7 7 7 7 7 7 7 7 7 7 7 7 7 7 7 7 7 7 7 7
7 6 7 7 7 6 6 6 6 6 6 6 6 6 6 6 6 6 6 6 6 7 7 7 7 7 6 7 7 7 7 7 7 7 7 7 7 7
6 6 6 6 6 6 6 6 6 6 6 6 6 6 6 6 6 6 6 6 6 6 6 6 6 6 6 6 6 6 6 6 6 6 6 6 6 6
5 5 5 5 5 5 5 5 5 5 5 5 5 5 5 5 5 5 5 5 5 5 5 5 5 5 5 5 6 6 6 6 5 5 5 5 6 6
5 5 5 5 5 5 5 5 5 5 5 5 5 5 5 5 5 5 5 5 5 5 5 5 5 4 4 5 5 5 5 5 5 5 5 5 5 5
4 4 4 4 4 4 4 4 4 4 5 5 4 4 4 4 4 4 4 4 4 4 4 4 4 4 4 4 4 4 4 4 4 4 4 4 4 5
4 4 4 4 4 4 4 4 4 4 4 4 4 4 4 4 4 4 4 3 3 3 4 4 4 3 3 3 3 3 3 4 4 4 4 4 4 4
3 3 3 3 3 3 3 3 3 3 3 3 3 3 3 3 3 3 3 3 3 3 3 3 3 3 3 2 2 2 3 3 3 3 3 3 3 4
Wind_Speed
2 2 2 1 2 2 3 3 3 2 3 3 2 2 3 3 3 3 3 3 4 4 4 3 4 4 5 6 6 6 6 6 6 6 5 5 5 5
2 2 1 1 1 1 2 2 3 4 3 3 3 3 2 2 3 3 4 4 4 4 5 4 5 5 6 6 6 6 6 6 6 6 6 6 6 6
1 2 2 2 1 1 1 1 2 3 3 3 2 2 2 2 2 2 3 3 4 5 5 5 5 6 6 7 7 6 6 7 6 6 6 6 7 6
2 2 2 2 2 2 2 2 2 3 4 4 2 2 2 2 2 2 2 3 4 6 6 6 6 6 6 6 6 6 6 6 6 6 6 6 6 6
2 2 3 2 2 2 2 2 2 2 2 3 3 2 1 1 1 2 2 2 3 5 6 6 6 7 7 7 7 7 6 6 6 6 6 6 5 5
1 2 2 3 3 3 2 3 2 2 2 2 2 2 2 1 1 1 2 2 3 2 4 6 7 7 7 7 7 7 7 7 6 6 6 5 4 4
1 2 2 3 3 3 2 2 2 2 2 2 2 2 2 1 2 2 2 3 3 2 2 3 4 4 5 7 8 8 7 6 6 6 6 5 4 4
1 2 2 3 4 4 4 3 3 3 3 3 3 3 4 4 3 2 2 1 3 2 1 3 2 3 5 6 7 7 7 6 6 6 6 5 4 5
2 2 2 3 2 2 3 3 3 4 4 4 4 5 4 4 3 3 3 3 4 3 1 3 2 3 5 6 7 7 6 6 6 6 5 5 5 6
2 2 2 3 2 1 2 2 3 4 4 3 4 5 4 4 4 4 4 3 3 2 2 3 2 3 3 5 6 7 6 6 6 6 6 6 6 6
2 2 2 2 3 2 1 2 3 4 4 4 4 4 5 4 1 1 1 0 2 3 2 2 2 2 2 3 5 6 6 7 7 7 7 7 7 7
2 3 3 3 3 2 2 2 3 5 3 3 3 4 3 3 3 3 3 2 1 3 2 2 1 1 2 2 3 4 4 5 7 7 8 8 7 5
2 3 3 4 3 3 2 3 5 4 3 3 2 2 2 2 2 3 3 3 3 3 3 3 2 1 2 2 3 3 3 3 4 5 7 8 7 5
2 3 3 3 3 3 2 3 4 3 1 1 1 2 2 3 3 3 4 5 5 5 4 4 3 3 2 2 3 2 3 3 3 3 4 6 6 7
2 3 4 3 3 3 3 4 2 1 1 1 2 3 3 4 3 2 3 3 3 4 3 4 3 3 3 4 3 2 2 3 2 3 3 3 4 4
2 3 3 3 2 2 3 3 2 1 1 3 3 3 2 2 2 2 2 2 2 3 3 4 4 3 3 4 3 3 3 2 2 3 3 3 4 5
2 2 2 2 2 2 2 2 2 2 2 3 3 2 2 2 2 2 1 1 2 2 3 2 3 3 3 3 3 4 3 3 3 2 2 3 4 5
1 1 1 1 2 2 2 3 2 3 3 3 3 3 3 3 3 2 1 2 3 3 3 2 2 2 2 2 4 4 3 3 3 2 2 3 5 5
1 1 2 2 2 3 3 3 3 4 3 3 3 4 3 3 3 3 2 3 3 4 3 2 1 1 2 4 3 3 3 2 2 2 3 3 5 5
1 2 2 3 3 3 3 3 4 3 3 3 3 4 3 3 3 3 3 4 4 4 3 2 2 3 4 5 4 3 4 3 3 3 3 3 4 6
2 2 3 3 3 4 4 4 4 4 4 4 4 4 4 3 4 4 4 5 4 4 4 4 5 5 2 1 2 3 3 5 5 3 2 2 3 3
3 3 3 4 4 4 4 4 4 4 4 4 4 4 4 4 4 5 4 4 4 4 5 4 2 1 1 3 4 4 4 4 4 5 5 3 2 3
3 3 3 3 3 3 4 4 5 4 4 4 4 4 4 4 4 4 4 4 4 4 4 3 2 2 2 3 4 4 4 4 3 3 4 6 7 8
Wind_Direction
187 187 195 214 211 201 177 172 174 223 270 271 274 275 269 263 274 261 250 275 287 281 274 277 282 299 305 304 302 302 304 305 303 296 292 291 293 295
190 180 206 221 225 204 192 193 189 186 230 255 247 260 271 278 281 267 262 281 287 283 273 271 277 289 298 297 294 295 298 300 295 286 285 283 282 281
210 201 230 217 212 220 199 196 200 183 220 264 247 256 245 278 307 284 276 268 277 283 279 272 276 284 294 300 285 284 293 298 295 293 289 281 275 267
221 218 245 231 223 222 211 223 222 204 200 242 265 264 251 259 283 293 285 276 270 277 275 274 275 277 281 290 289 281 287 294 293 296 295 288 270 261
214 217 237 222 241 240 229 234 237 225 203 214 252 259 265 271 292 306 307 292 279 277 275 277 275 273 273 277 280 285 288 292 292 297 298 297 275 255
230 227 229 224 235 238 239 240 233 225 211 216 242 258 260 268 222 269 302 300 297 290 291 286 280 276 273 273 272 277 284 288 296 296 296 295 281 253
281 272 253 254 262 251 251 236 216 214 220 232 245 256 258 250 245 235 259 299 292 261 297 292 282 276 274 273 270 274 276 281 291 294 291 287 273 261
256 283 278 274 279 273 266 251 218 209 218 226 243 245 255 244 237 228 228 283 285 264 242 275 254 267 267 262 268 272 271 274 279 281 279 280 276 266
227 257 284 294 288 267 275 277 261 252 225 219 232 244 250 237 221 226 227 234 248 250 216 259 245 260 270 267 268 271 271 272 277 279 278 275 274 263
256 241 250 275 274 259 261 277 277 273 255 241 240 253 257 243 223 222 226 241 274 261 187 238 262 265 285 275 266 267 271 272 272 274 273 270 269 267
293 278 258 256 277 276 246 265 291 297 293 279 279 286 289 283 241 137 138 265 279 265 203 210 258 296 296 284 277 273 271 272 273 274 272 267 265 265
314 305 294 282 281 270 228 235 264 280 294 301 304 308 309 298 254 208 200 214 250 258 220 203 237 302 303 290 291 289 284 279 278 275 276 270 263 260
310 306 305 317 303 285 258 240 259 272 268 264 276 294 308 305 284 258 229 214 222 243 222 189 212 218 233 282 299 285 276 283 290 281 276 275 270 257
289 295 301 323 318 310 287 288 288 292 277 275 292 291 289 289 286 273 262 249 243 244 232 202 209 211 217 252 272 286 283 272 267 276 277 285 277 267
293 306 319 336 334 326 331 329 319 295 264 272 273 270 268 271 282 295 298 290 283 278 254 231 226 224 220 232 244 255 282 282 261 270 281 276 270 266
327 332 343 350 346 336 343 338 324 288 261 255 264 268 279 287 280 282 293 303 304 306 299 270 244 217 228 243 239 257 256 263 280 269 273 279 277 264
321 346 354 357 353 342 339 329 317 314 299 288 275 281 280 274 277 276 264 271 258 280 304 324 314 277 248 236 247 254 261 269 270 274 271 278 275 270
17 328 312 309 300 300 303 307 300 295 289 287 283 275 274 272 279 288 271 254 264 270 276 294 335 345 336 303 245 248 256 267 278 272 260 267 283 284
43 289 286 283 286 288 288 286 284 285 284 281 279 277 273 271 275 276 277 274 275 268 266 253 243 243 283 295 297 247 250 273 282 279 259 255 273 285
295 283 287 283 277 275 278 278 280 286 285 280 276 276 273 269 271 267 261 266 269 271 273 261 245 241 246 262 274 289 262 253 258 271 278 277 283 296
287 287 284 285 286 279 277 276 273 273 277 274 272 271 270 267 269 268 264 267 268 266 262 263 259 256 263 285 287 298 295 268 259 266 273 287 300 309
280 279 281 281 282 284 285 280 277 278 280 274 269 267 263 257 259 261 261 265 265 266 267 270 260 231 230 248 264 281 297 308 293 287 277 252 244 260
278 279 282 286 286 286 288 287 280 276 274 274 270 265 263 263 259 254 257 259 264 269 275 277 273 246 244 246 260 275 284 294 300 301 293 285 271 276
Height
1524 1524 1524 1524 1524 1524 1525 1525 1525 1524 1523 1523 1523 1523 1522 1522 1521 1521 1520 1520 1519 1518 1517 1517 1516 1515 1514 1514 1513 1512 1512 1511 1510 1510 1509 1509 1509 1509
1521 1522 1522 1522 1522 1522 1522 1522 1522 1522 1521 1520 1521 1521 1520 1520 1519 1519 1518 1517 1516 1516 1515 1514 1513 1512 1511 1510 1510 1509 1508 1507 1506 1505 1505 1504 1504 1505
1519 1519 1519 1519 1520 1520 1520 1520 1520 1520 1519 1518 1518 1518 1518 1517 1517 1517 1516 1515 1514 1513 1512 1511 1511 1510 1508 1507 1506 1505 1504 1503 1502 1501 1500 1499 1499 1499
1516 1516 1516 1516 1517 1517 1517 1517 1517 1517 1516 1515 1515 1515 1515 1515 1514 1514 1513 1512 1511 1510 1510 1509 1508 1507 1505 1504 1502 1501 1500 1499 1498 1497 1496 1494 1493 1493
1513 1513 1513 1514 1513 1514 1514 1514 1514 1514 1513 1513 1512 1512 1512 1512 1511 1510 1510 1509 1508 1508 1507 1506 1505 1504 1502 1501 1499 1498 1497 1495 1494 1493 1492 1489 1488 1488
1511 1510 1510 1510 1510 1510 1510 1510 1510 1510 1510 1510 1509 1509 1508 1508 1508 1507 1506 1505 1505 1504 1504 1503 1502 1501 1499 1498 1496 1495 1493 1492 1491 1490 1488 1486 1484 1485
1508 1508 1507 1507 1507 1507 1507 1507 1507 1507 1507 1506 1506 1505 1505 1504 1504 1503 1502 1502 1501 1500 1499 1499 1498 1497 1496 1495 1493 1492 1491 1489 1488 1487 1486 1484 1483 1483
1504 1504 1504 1504 1504 1504 1504 1504 1504 1504 1503 1503 1502 1502 1501 1501 1500 1500 1499 1498 1497 1497 1496 1495 1495 1494 1493 1492 1491 1489 1488 1487 1486 1485 1484 1483 1482 1483
1501 1501 1501 1501 1501 1501 1501 1501 1501 1500 1501 1500 1499 1498 1498 1497 1497 1496 1495 1495 1494 1493 1492 1490 1491 1490 1490 1488 1488 1487 1486 1485 1484 1483 1483 1482 1482 1481
1499 1498 1498 1498 1498 1498 1497 1497 1497 1497 1497 1496 1496 1495 1495 1494 1493 1493 1492 1491 1491 1490 1489 1488 1487 1486 1486 1485 1484 1484 1483 1482 1481 1481 1480 1480 1479 1479
1495 1495 1495 1494 1495 1494 1494 1493 1493 1493 1493 1493 1492 1492 1491 1491 1490 1489 1488 1487 1486 1486 1486 1485 1483 1482 1482 1482 1481 1480 1480 1479 1479 1478 1477 1477 1477 1476
1492 1492 1491 1491 1491 1491 1490 1490 1489 1489 1489 1489 1488 1488 1488 1487 1486 1486 1485 1484 1483 1483 1482 1482 1480 1480 1478 1478 1478 1477 1477 1476 1476 1475 1474 1474 1473 1473
1488 1488 1487 1487 1487 1487 1487 1486 1486 1486 1485 1484 1484 1484 1483 1483 1482 1482 1482 1481 1480 1480 1480 1478 1477 1477 1476 1475 1474 1474 1473 1472 1472 1471 1471 1470 1470 1469
1486 1485 1484 1484 1484 1484 1483 1482 1482 1482 1481 1480 1480 1479 1479 1478 1478 1478 1477 1477 1477 1476 1476 1475 1474 1473 1472 1471 1470 1470 1469 1469 1468 1468 1467 1467 1466 1465
1483 1482 1482 1481 1481 1480 1480 1479 1478 1477 1477 1476 1475 1475 1475 1474 1474 1473 1473 1472 1472 1472 1471 1471 1470 1469 1469 1468 1466 1466 1465 1465 1464 1464 1463 1462 1461 1461
1480 1480 1479 1479 1478 1477 1476 1476 1475 1474 1473 1472 1471 1471 1471 1470 1469 1469 1468 1467 1466 1466 1466 1466 1465 1465 1464 1463 1463 1462 1462 1461 1460 1460 1459 1458 1458 1457
1477 1476 1475 1475 1474 1473 1472 1472 1471 1470 1469 1468 1468 1467 1466 1465 1465 1464 1464 1463 1462 1461 1461 1461 1461 1460 1460 1459 1458 1457 1457 1457 1456 1455 1454 1453 1453 1453
1474 1473 1472 1471 1470 1469 1468 1468 1467 1466 1465 1465 1464 1463 1462 1461 1460 1460 1459 1459 1458 1457 1456 1456 1456 1455 1454 1454 1454 1453 1453 1452 1452 1451 1450 1449 1448 1448
1470 1469 1468 1468 1467 1466 1465 1464 1463 1463 1462 1461 1460 1459 1458 1457 1456 1455 1455 1454 1454 1453 1452 1452 1451 1450 1449 1448 1448 1449 1448 1447 1447 1446 1445 1444 1443 1443
1467 1466 1465 1464 1463 1462 1461 1460 1459 1458 1457 1456 1455 1455 1454 1453 1452 1451 1450 1450 1449 1448 1448 1447 1447 1446 1446 1445 1444 1444 1444 1443 1442 1441 1441 1440 1439 1439
1463 1462 1461 1460 1459 1458 1457 1456 1455 1453 1452 1452 1451 1450 1449 1448 1447 1446 1446 1445 1444 1444 1443 1442 1442 1443 1442 1441 1440 1438 1439 1440 1439 1438 1436 1435 1434 1433
1459 1458 1457 1456 1455 1454 1452 1451 1450 1449 1448 1446 1446 1445 1444 1444 1443 1441 1441 1440 1439 1439 1438 1438 1438 1437 1437 1436 1435 1434 1434 1435 1434 1434 1434 1433 1431 1429
1455 1454 1453 1452 1450 1449 1448 1447 1445 1444 1443 1442 1441 1440 1439 1439 1438 1437 1436 1435 1434 1434 1433 1432 1432 1432 1432 1432 1431 1430 1430 1430 1429 1428 1428 1428 1428 1427